Content
SEND FEEDBACK

Daily
Averages
Monthly
Summary
Philippines

QUEZON CITY, PHILIPPINES


Home > Asia > Philippines
Elevation: 151 feet     Latitude: 14 39N     Longitude: 121 03E

WEATHER
 
SELECT A DAY
Number of Records: 177,008;   Date Range: 7/1/96 - 10/20/14
 
SHARE

PRINT THIS DATA

[ ← Previous Day ]
WEATHER ALMANAC - APRIL 10, 2013
[ Next Day → ]
[ °C ]   °F
Weather ElementAverageHighLow
Temperature86.7 °F93.2 °F (11:00 am)80.6 °F (3:00 am)
Dewpoint72.5 °F75.2 °F (6:00 pm)69.8 °F (8:00 am)
Humidity61.5 %79 % (3:00 am)41 % (2:00 pm)
Barometer29.83 in29.89 in (10:00 pm)29.74 in (4:00 pm)
Wind Speed7.6 mph15 mph (4:00 pm)
Weather ElementAverage
Visibility6.2 mi
Wind DirectionESE (98.7 °)

Weather ElementTotal
Precipitation---
Cooling Degree Days21.9 (Base 65)
Growing Degree Days36.9 (Base 50)
Averaged from 30 records on April 10, 2013
WEATHER CONDITIONS BREAKOUT
WIND DIRECTION BREAKOUT
WEATHER BY HOUR - APRIL 10, 2013
[ °C ]   °F
Local TimeTemperatureDewpointHumidityBarometerVisibilityWind DirectionWind SpeedGust SpeedPrecipitationEventsConditions
1:00 AM84.2 °F73.4 °F70 %29.86 in6.2 miEast (100°)5.8 mphPartly Cloudy
2:00 AM82.4 °F73.4 °F74 %29.83 in6.2 miVariable2.3 mphPartly Cloudy
3:00 AM80.6 °F73.4 °F79 %29.83 in6.2 miENE (60°)5.8 mphPartly Cloudy
4:00 AM80.6 °F71.6 °F74 %29.83 in6.2 miVariable2.3 mphScattered Clouds
5:00 AM81.0 °F71.0 °F66 %29.84 in6.0 miEast (100°)2.2 mphHaze
5:00 AM80.6 °F71.6 °F74 %29.83 in6.2 miVariable2.3 mphScattered Clouds
6:00 AM80.6 °F71.6 °F74 %29.86 in6.2 miVariable1.2 mphScattered Clouds
7:00 AM82.4 °F71.6 °F70 %29.86 in6.2 miVariable2.3 mphScattered Clouds
8:00 AM87.0 °F71.0 °F51 %29.88 in6.0 miSE (130°)2.2 mphHaze
8:00 AM87.8 °F69.8 °F55 %29.86 in6.2 miVariable3.5 mphScattered Clouds
9:00 AM87.8 °F69.8 °F55 %29.86 in6.2 miEast (90°)4.6 mphScattered Clouds
10:00 AM89.6 °F71.6 °F55 %29.86 in6.2 miESE (120°)6.9 mphScattered Clouds
11:00 AM92.0 °F73.0 °F45 %29.86 in6.0 miSE (130°)8.9 mphHaze
11:00 AM93.2 °F73.4 °F52 %29.86 in6.2 miSE (130°)9.2 mphPartly Cloudy
12:00 PM93.2 °F71.6 °F49 %29.83 in6.2 miSE (130°)9.2 mphPartly Cloudy
1:00 PM93.2 °F71.6 °F49 %29.80 in6.2 miSSE (150°)9.2 mphPartly Cloudy
2:00 PM93.0 °F72.0 °F41 %29.79 in6.0 miSE (140°)8.9 mphScattered Clouds
2:00 PM93.2 °F71.6 °F49 %29.77 in6.2 miSE (140°)10.4 mphPartly Cloudy
3:00 PM93.2 °F71.6 °F49 %29.77 in6.2 miSE (130°)11.5 mphPartly Cloudy
4:00 PM91.4 °F71.6 °F52 %29.74 in6.2 miSE (140°)15.0 mphPartly Cloudy
5:00 PM89.0 °F74.0 °F53 %29.75 in6.0 miSE (130°)11.2 mphScattered Clouds
5:00 PM89.6 °F73.4 °F59 %29.74 in6.2 miSE (130°)12.7 mphPartly Cloudy
6:00 PM86.0 °F75.2 °F70 %29.77 in6.2 miSE (130°)10.4 mphPartly Cloudy
7:00 PM86.0 °F73.4 °F66 %29.80 in6.2 miSE (130°)10.4 mphPartly Cloudy
8:00 PM85.0 °F74.0 °F63 %29.75 in6.0 miSE (130°)6.7 mphScattered Clouds
8:00 PM84.2 °F75.2 °F74 %29.83 in6.2 miSE (130°)8.1 mphPartly Cloudy
9:00 PM84.2 °F73.4 °F70 %29.86 in6.2 miESE (120°)10.4 mphPartly Cloudy
10:00 PM84.2 °F73.4 °F70 %29.89 in6.2 miESE (110°)10.4 mphPartly Cloudy
11:00 PM83.0 °F74.0 °F66 %29.89 in6.0 miSE (130°)11.2 mphScattered Clouds
11:00 PM84.2 °F73.4 °F70 %29.89 in6.2 miSE (130°)11.5 mphPartly Cloudy
Hourly data recorded from RPLL, located miles away from Quezon City, Philippines







STORIES FROM OUR PARTNERS